Hourly Data Report for May 13, 2020

All times are specified in Local Standard Time (LST). Add 1 hour to adjust for Daylight Saving Time where and when it is observed.

OTTAWA INTL A
ONTARIO
Current Station Operator: NAVCAN

45°19'00.000" N
75°40'00.000" W
114.90 m
6106001
71628
YOW

Download Data

Hourly Data (May 2020)
Hourly Data Report for May 13, 2020
TIME Temp Definition
°C
Dew Point Definition
°C
Rel Hum Definition
%
Wind Dir Definition
10's deg

Wind Spd Definition
km/h
Visibility Definition
km
Stn Press Definition
kPa
Hmdx Definition


Wind Chill Definition


Weather Definition


00:00 -0.8 -7.0 63 25 10 24.1 100.67   -4 LegendNANA
01:00 0.0 -7.0 59 23 7 24.1 100.70   -2 Clear
02:00 -1.7 -7.1 67 24 14 24.1 100.74   -6 LegendNANA
03:00 0.0 -7.2 59 29 13 24.1 100.79   -4 LegendNANA
04:00 -0.2 -6.7 62 28 13 24.1 100.85   -4 Clear
05:00 -0.4 -6.7 63 28 12 24.1 100.93   -4 LegendNANA
06:00 1.9 -6.3 55 28 15 24.1 101.00     LegendNANA
07:00 3.9 -5.5 50 29 16 24.1 101.07     Clear
08:00 6.3 -7.1 38 30 15 24.1 101.11     LegendNANA
09:00 7.6 -8.1 32 29 18 24.1 101.11     LegendNANA
10:00 9.0 -9.5 26 28 22 24.1 101.11     Clear
11:00 10.6 -9.1 24 28 22 24.1 101.11     LegendNANA
12:00 11.9 -8.9 22 26 25 24.1 101.09     LegendNANA
13:00 12.0 -9.4 21 28 22 24.1 101.05     Clear
14:00 12.8 -8.0 23 25 17 24.1 101.01     LegendNANA
15:00 13.7 -8.0 21 26 21 24.1 100.95     LegendNANA
16:00 13.8 -9.6 19 27 23 24.1 100.95     Clear
17:00 14.3 -9.5 18 28 24 24.1 100.94     LegendNANA
18:00 13.7 -9.1 20 27 20 24.1 100.92     LegendNANA
19:00 11.4 -7.9 25 27 11 24.1 100.93     Clear
20:00 10.8 -9.6 23 26 7 24.1 100.96     LegendNANA
21:00 7.5 -4.1 44 18 12 24.1 101.02     LegendNANA
22:00 7.0 -3.0 49 19 10 24.1 101.02     Clear
23:00 6.1 -2.8 53 19 11 24.1 101.04     LegendNANA

Notes on Data Quality.

Legend

  • E = Estimated
  • M = Missing
  • NA = Not Available*
  • [empty] = Indicates an unobserved value
Date modified: